Time,TemperatureF,DewpointF,PressureIn,WindDirection,WindDirectionDegrees,WindSpeedMPH,WindSpeedGustMPH,Humidity,HourlyPrecipIn,Conditions,Clouds,dailyrainin,SoftwareType,DateUTC
2013-02-27 00:14:00,35.6,34.0,29.88,East,79,5.0,12.0,93,0.11,,,0.11,weatherlink.com 1.10,2013-02-27 05:14:00,
2013-02-27 00:29:00,35.7,34.0,29.88,SSE,153,5.0,12.0,94,0.14,,,0.15,weatherlink.com 1.10,2013-02-27 05:29:00,
2013-02-27 00:44:00,35.7,34.0,29.88,NNE,33,4.0,15.0,94,0.18,,,0.21,weatherlink.com 1.10,2013-02-27 05:44:00,
2013-02-27 00:59:00,35.7,34.0,29.87,NNW,347,4.0,14.0,94,0.19,,,0.25,weatherlink.com 1.10,2013-02-27 05:59:00,
2013-02-27 01:14:00,35.8,34.0,29.85,NNE,12,6.0,14.0,94,0.16,,,0.27,weatherlink.com 1.10,2013-02-27 06:14:00,
2013-02-27 01:29:00,35.9,34.0,29.85,NE,46,7.0,17.0,94,0.15,,,0.30,weatherlink.com 1.10,2013-02-27 06:29:00,
2013-02-27 01:44:00,35.9,34.0,29.83,East,84,5.0,12.0,94,0.12,,,0.33,weatherlink.com 1.10,2013-02-27 06:44:00,
2013-02-27 01:59:00,36.0,35.0,29.83,North,11,8.0,14.0,94,0.12,,,0.38,weatherlink.com 1.10,2013-02-27 06:59:00,
2013-02-27 02:14:00,36.1,35.0,29.81,East,94,9.0,15.0,94,0.13,,,0.40,weatherlink.com 1.10,2013-02-27 07:14:00,
2013-02-27 02:29:00,36.2,35.0,29.80,NNE,26,7.0,12.0,94,0.13,,,0.43,weatherlink.com 1.10,2013-02-27 07:29:00,
2013-02-27 02:44:00,36.3,35.0,29.78,NNE,23,3.0,15.0,94,0.10,,,0.44,weatherlink.com 1.10,2013-02-27 07:44:00,
2013-02-27 02:59:00,36.5,35.0,29.77,NNW,347,3.0,16.0,94,0.10,,,0.48,weatherlink.com 1.10,2013-02-27 07:59:00,
2013-02-27 03:14:00,36.7,35.0,29.75,North,358,5.0,11.0,95,0.11,,,0.52,weatherlink.com 1.10,2013-02-27 08:14:00,
2013-02-27 03:29:00,36.8,36.0,29.74,SE,139,2.0,9.0,95,0.13,,,0.56,weatherlink.com 1.10,2013-02-27 08:29:00,
2013-02-27 03:45:00,36.9,35.0,29.74,NNE,26,3.0,15.0,94,0.15,,,0.60,weatherlink.com 1.10,2013-02-27 08:45:00,
2013-02-27 04:00:00,37.0,36.0,29.73,ENE,75,6.0,14.0,95,0.15,,,0.64,weatherlink.com 1.10,2013-02-27 09:00:00,
2013-02-27 04:15:00,37.2,36.0,29.72,North,356,3.0,16.0,95,0.16,,,0.68,weatherlink.com 1.10,2013-02-27 09:15:00,
2013-02-27 04:30:00,37.4,36.0,29.72,West,280,1.0,14.0,95,0.17,,,0.73,weatherlink.com 1.10,2013-02-27 09:30:00,
2013-02-27 04:45:00,37.7,36.0,29.70,East,86,5.0,13.0,95,0.16,,,0.76,weatherlink.com 1.10,2013-02-27 09:45:00,
2013-02-27 05:00:00,38.0,37.0,29.69,NNE,27,2.0,16.0,95,0.16,,,0.80,weatherlink.com 1.10,2013-02-27 10:00:00,
2013-02-27 05:15:00,38.3,37.0,29.68,ENE,75,6.0,12.0,95,0.17,,,0.85,weatherlink.com 1.10,2013-02-27 10:15:00,
2013-02-27 05:30:00,38.6,37.0,29.66,SSE,166,2.0,15.0,95,0.16,,,0.89,weatherlink.com 1.10,2013-02-27 10:30:00,
2013-02-27 05:45:00,39.1,38.0,29.66,NW,320,2.0,16.0,95,0.15,,,0.91,weatherlink.com 1.10,2013-02-27 10:45:00,
2013-02-27 06:00:00,39.6,38.0,29.65,ENE,64,7.0,13.0,95,0.14,,,0.94,weatherlink.com 1.10,2013-02-27 11:00:00,
2013-02-27 06:15:00,40.0,39.0,29.64,NNE,12,2.0,17.0,95,0.11,,,0.96,weatherlink.com 1.10,2013-02-27 11:15:00,
2013-02-27 06:30:00,40.3,39.0,29.64,ESE,102,1.0,14.0,95,0.09,,,0.98,weatherlink.com 1.10,2013-02-27 11:30:00,
2013-02-27 06:45:00,40.5,39.0,29.63,ESE,108,8.0,16.0,95,0.09,,,1.01,weatherlink.com 1.10,2013-02-27 11:45:00,
2013-02-27 07:00:00,40.7,39.0,29.62,NW,326,7.0,14.0,95,0.11,,,1.05,weatherlink.com 1.10,2013-02-27 12:00:00,
2013-02-27 07:15:00,41.0,40.0,29.61,ESE,103,6.0,15.0,95,0.13,,,1.09,weatherlink.com 1.10,2013-02-27 12:15:00,
2013-02-27 07:30:00,41.4,40.0,29.60,NE,36,5.0,14.0,95,0.14,,,1.12,weatherlink.com 1.10,2013-02-27 12:30:00,
2013-02-27 07:45:00,41.6,40.0,29.61,North,11,3.0,11.0,95,0.14,,,1.15,weatherlink.com 1.10,2013-02-27 12:45:00,
2013-02-27 08:00:00,41.7,40.0,29.60,East,84,5.0,10.0,95,0.11,,,1.17,weatherlink.com 1.10,2013-02-27 13:00:00,
2013-02-27 08:15:00,41.8,41.0,29.60,East,96,6.0,14.0,95,0.09,,,1.19,weatherlink.com 1.10,2013-02-27 13:15:00,
2013-02-27 08:30:00,41.9,41.0,29.58,East,91,12.0,13.0,95,0.09,,,1.22,weatherlink.com 1.10,2013-02-27 13:30:00,
2013-02-27 08:45:00,42.0,41.0,29.58,North,1,4.0,14.0,95,0.08,,,1.23,weatherlink.com 1.10,2013-02-27 13:45:00,
2013-02-27 09:00:00,42.2,41.0,29.58,NE,49,1.0,12.0,95,0.08,,,1.25,weatherlink.com 1.10,2013-02-27 14:00:00,
2013-02-27 09:15:00,42.2,41.0,29.57,East,91,13.0,16.0,95,0.07,,,1.27,weatherlink.com 1.10,2013-02-27 14:15:00,
2013-02-27 09:30:00,42.3,41.0,29.56,ENE,77,5.0,16.0,95,0.07,,,1.29,weatherlink.com 1.10,2013-02-27 14:30:00,
2013-02-27 09:45:00,42.5,41.0,29.56,East,82,6.0,13.0,95,0.07,,,1.30,weatherlink.com 1.10,2013-02-27 14:45:00,
2013-02-27 10:00:00,42.5,41.0,29.55,NE,51,4.0,12.0,95,0.07,,,1.32,weatherlink.com 1.10,2013-02-27 15:00:00,
2013-02-27 10:16:00,42.4,41.0,29.54,NE,43,4.0,12.0,95,0.06,,,1.33,weatherlink.com 1.10,2013-02-27 15:16:00,
2013-02-27 10:32:00,42.5,42.0,29.54,ENE,58,2.0,11.0,96,0.06,,,1.35,weatherlink.com 1.10,2013-02-27 15:32:00,
2013-02-27 10:46:00,42.6,41.0,29.55,NE,53,7.0,10.0,95,0.06,,,1.36,weatherlink.com 1.10,2013-02-27 15:46:00,
2013-02-27 11:01:00,42.7,42.0,29.55,ESE,107,2.0,9.0,96,0.05,,,1.37,weatherlink.com 1.10,2013-02-27 16:01:00,
2013-02-27 11:16:00,43.0,42.0,29.53,ENE,72,8.0,12.0,96,0.05,,,1.39,weatherlink.com 1.10,2013-02-27 16:16:00,
2013-02-27 11:31:00,43.1,42.0,29.52,WNW,295,4.0,7.0,96,0.04,,,1.39,weatherlink.com 1.10,2013-02-27 16:31:00,
2013-02-27 11:46:00,43.1,42.0,29.53,East,80,1.0,6.0,96,0.03,,,1.39,weatherlink.com 1.10,2013-02-27 16:46:00,
2013-02-27 12:01:00,43.1,42.0,29.53,SW,222,0.0,6.0,96,0.02,,,1.39,weatherlink.com 1.10,2013-02-27 17:01:00,
2013-02-27 12:16:00,43.2,42.0,29.52,ESE,121,1.0,5.0,96,0.01,,,1.40,weatherlink.com 1.10,2013-02-27 17:16:00,
2013-02-27 12:31:00,43.4,42.0,29.51,ESE,103,3.0,5.0,96,0.01,,,1.40,weatherlink.com 1.10,2013-02-27 17:31:00,
2013-02-27 12:46:00,43.5,43.0,29.51,East,91,0.0,6.0,96,0.01,,,1.40,weatherlink.com 1.10,2013-02-27 17:46:00,
2013-02-27 13:01:00,43.7,43.0,29.51,East,91,1.0,7.0,96,0.01,,,1.40,weatherlink.com 1.10,2013-02-27 18:01:00,
2013-02-27 13:16:00,43.6,42.0,29.51,ESE,112,1.0,6.0,95,0.00,,,1.40,weatherlink.com 1.10,2013-02-27 18:16:00,
2013-02-27 13:31:00,43.7,43.0,29.51,North,6,3.0,5.0,96,0.00,,,1.40,weatherlink.com 1.10,2013-02-27 18:31:00,
2013-02-27 13:46:00,43.9,43.0,29.52,North,351,0.0,3.0,96,0.01,,,1.41,weatherlink.com 1.10,2013-02-27 18:46:00,
2013-02-27 14:01:00,44.0,43.0,29.52,NW,326,0.0,0.0,96,0.01,,,1.41,weatherlink.com 1.10,2013-02-27 19:01:00,
2013-02-27 14:16:00,44.3,43.0,29.52,NW,326,0.0,0.0,96,0.01,,,1.41,weatherlink.com 1.10,2013-02-27 19:16:00,
2013-02-27 14:31:00,44.8,44.0,29.52,West,266,0.0,0.0,96,0.01,,,1.41,weatherlink.com 1.10,2013-02-27 19:31:00,
2013-02-27 14:46:00,45.3,44.0,29.53,West,280,2.0,3.0,96,0.00,,,1.41,weatherlink.com 1.10,2013-02-27 19:46:00,
2013-02-27 15:01:00,45.7,44.0,29.53,NW,306,0.0,2.0,95,0.00,,,1.41,weatherlink.com 1.10,2013-02-27 20:01:00,
2013-02-27 15:16:00,46.4,45.0,29.54,SW,224,1.0,3.0,94,0.00,,,1.41,weatherlink.com 1.10,2013-02-27 20:16:00,
2013-02-27 15:31:00,46.5,45.0,29.54,North,8,0.0,2.0,93,0.00,,,1.41,weatherlink.com 1.10,2013-02-27 20:31:00,
2013-02-27 15:46:00,46.6,45.0,29.55,West,277,0.0,1.0,93,0.00,,,1.41,weatherlink.com 1.10,2013-02-27 20:46:00,
2013-02-27 16:01:00,47.1,44.0,29.56,WNW,302,2.0,7.0,87,0.00,,,1.41,weatherlink.com 1.10,2013-02-27 21:01:00,
2013-02-27 16:31:00,47.4,41.0,29.57,SW,233,4.0,7.0,78,0.00,,,1.41,weatherlink.com 1.10,2013-02-27 21:31:00,
2013-02-27 16:46:00,46.7,40.0,29.57,West,278,1.0,7.0,76,0.00,,,1.41,weatherlink.com 1.10,2013-02-27 21:46:00,
2013-02-27 17:01:00,46.6,40.0,29.58,WNW,287,1.0,5.0,78,0.00,,,1.41,weatherlink.com 1.10,2013-02-27 22:01:00,
2013-02-27 17:16:00,46.1,39.0,29.59,WNW,301,2.0,10.0,75,0.00,,,1.41,weatherlink.com 1.10,2013-02-27 22:16:00,
2013-02-27 17:31:00,45.0,38.0,29.60,NW,325,0.0,6.0,76,0.00,,,1.41,weatherlink.com 1.10,2013-02-27 22:31:00,
2013-02-27 17:46:00,44.3,38.0,29.60,WNW,300,2.0,6.0,78,0.00,,,1.41,weatherlink.com 1.10,2013-02-27 22:46:00,
2013-02-27 18:01:00,43.7,38.0,29.61,NW,310,0.0,8.0,79,0.00,,,1.41,weatherlink.com 1.10,2013-02-27 23:01:00,
2013-02-27 18:16:00,43.3,38.0,29.62,West,274,0.0,3.0,80,0.00,,,1.41,weatherlink.com 1.10,2013-02-27 23:16:00,
2013-02-27 18:31:00,43.2,37.0,29.63,WSW,249,1.0,3.0,80,0.00,,,1.41,weatherlink.com 1.10,2013-02-27 23:31:00,
2013-02-27 18:46:00,43.5,37.0,29.63,SW,233,1.0,5.0,78,0.00,,,1.41,weatherlink.com 1.10,2013-02-27 23:46:00,
2013-02-27 19:01:00,43.6,37.0,29.64,NW,319,1.0,3.0,78,0.00,,,1.41,weatherlink.com 1.10,2013-02-28 00:01:00,
2013-02-27 19:16:00,43.8,37.0,29.64,WSW,253,1.0,3.0,78,0.00,,,1.41,weatherlink.com 1.10,2013-02-28 00:16:00,
2013-02-27 19:31:00,43.8,37.0,29.64,WSW,247,0.0,3.0,78,0.00,,,1.41,weatherlink.com 1.10,2013-02-28 00:31:00,
2013-02-27 19:46:00,43.8,38.0,29.64,WNW,288,0.0,2.0,79,0.00,,,1.41,weatherlink.com 1.10,2013-02-28 00:46:00,
2013-02-27 20:01:00,43.7,38.0,29.65,West,281,0.0,2.0,80,0.00,,,1.41,weatherlink.com 1.10,2013-02-28 01:01:00,
2013-02-27 20:16:00,43.8,38.0,29.65,NW,308,0.0,4.0,79,0.00,,,1.41,weatherlink.com 1.10,2013-02-28 01:16:00,
2013-02-27 20:31:00,43.7,37.0,29.65,SSW,213,1.0,3.0,78,0.00,,,1.41,weatherlink.com 1.10,2013-02-28 01:31:00,
2013-02-27 20:46:00,43.9,37.0,29.66,WSW,255,1.0,7.0,77,0.00,,,1.41,weatherlink.com 1.10,2013-02-28 01:46:00,
2013-02-27 21:01:00,43.5,37.0,29.66,WNW,290,0.0,1.0,78,0.00,,,1.41,weatherlink.com 1.10,2013-02-28 02:01:00,
2013-02-27 21:16:00,43.7,37.0,29.65,NNW,330,1.0,4.0,78,0.00,,,1.41,weatherlink.com 1.10,2013-02-28 02:16:00,
2013-02-27 21:31:00,43.6,37.0,29.66,North,354,1.0,3.0,78,0.00,,,1.41,weatherlink.com 1.10,2013-02-28 02:31:00,
2013-02-27 21:46:00,43.6,37.0,29.65,NNW,330,0.0,5.0,78,0.00,,,1.41,weatherlink.com 1.10,2013-02-28 02:46:00,
2013-02-27 22:01:00,43.6,37.0,29.65,North,11,0.0,4.0,78,0.00,,,1.41,weatherlink.com 1.10,2013-02-28 03:01:00,
2013-02-27 22:16:00,43.5,37.0,29.65,SSW,198,0.0,4.0,78,0.00,,,1.41,weatherlink.com 1.10,2013-02-28 03:16:00,
2013-02-27 22:31:00,43.3,37.0,29.64,WSW,242,0.0,0.0,79,0.00,,,1.41,weatherlink.com 1.10,2013-02-28 03:31:00,
2013-02-27 22:46:00,43.0,37.0,29.64,NW,323,0.0,3.0,79,0.00,,,1.41,weatherlink.com 1.10,2013-02-28 03:46:00,
2013-02-27 23:01:00,42.9,37.0,29.64,ESE,102,0.0,4.0,80,0.00,,,1.41,weatherlink.com 1.10,2013-02-28 04:01:00,
2013-02-27 23:31:00,41.8,37.0,29.64,NW,305,0.0,0.0,84,0.00,,,0.00,weatherlink.com 1.10,2013-02-28 04:31:00,
2013-02-27 23:47:00,41.3,37.0,29.63,NW,305,0.0,0.0,85,0.00,,,0.00,weatherlink.com 1.10,2013-02-28 04:47:00,